This demonstration page uses our WeatherBlox Daily Observations layout. Learn more.

Left ArrowRight Arrow

Hourly Observations for March 19, 2021

Temp ( °F °C ) Dew Point ( °F °C ) Humidity (%) Winds ( mph kmh ) Pressure ( in mb ) Visibility ( mi km ) Precip ( " mm )
12:53 am 00:53 Cloudy with Light Rain 46 7.8 40 4.4 79 79 NNW 15 24 29.90 1012 10 16 0.00 0.00
1:36 am 01:36 Cloudy 46 7.8 38 3.3 73 73 NW 13 20 29.93 1013 10 16 0.00 0.00
1:53 am 01:53 Mostly Cloudy 46 7.8 37 2.8 71 71 WNW 13 20 29.90 1013 10 16 0.00 0.00
2:09 am 02:09 Mostly Cloudy 46 7.8 37 2.8 71 71 WNW 14 22 29.94 1014 10 16 0.00 0.00
2:53 am 02:53 Cloudy 46 7.8 37 2.8 71 71 NW 13 20 29.91 1013 10 16 0.00 0.00
3:37 am 03:37 Cloudy 45 7.2 37 2.8 74 74 NW 9 15 29.94 1014 10 16 0.00 0.00
3:53 am 03:53 Mostly Cloudy 45 7.2 38 3.3 77 77 WNW 6 9 29.91 1013 10 16 0.00 0.00
4:53 am 04:53 Mostly Cloudy 44 6.7 38 3.3 79 79 NNW 6 9 29.92 1013 10 16 0.00 0.00
5:06 am 05:06 Cloudy 45 7.2 38 3.3 77 77 NW 7 11 29.95 1014 10 16 0.00 0.00
5:43 am 05:43 Cloudy 45 7.2 39 3.9 80 80 WNW 9 15 29.95 1014 10 16 0.00 0.00
5:53 am 05:53 Cloudy 45 7.2 39 3.9 80 80 WNW 8 13 29.93 1014 10 16 0.00 0.00
6:07 am 06:07 Cloudy 45 7.2 39 3.9 80 80 WNW 9 15 29.96 1015 10 16 0.00 0.00
6:53 am 06:53 Cloudy 46 7.8 39 3.9 77 77 WNW 9 15 29.95 1014 10 16 0.00 0.00
7:53 am 07:53 Cloudy 46 7.8 39 3.9 77 77 WNW 9 15 29.98 1015 10 16 0.00 0.00
8:53 am 08:53 Cloudy 47 8.3 41 5 80 80 W 13 20 30.00 1016 10 16 0.00 0.00
9:32 am 09:32 Cloudy 47 8.3 40 4.4 77 77 NW 8 13 30.04 1017 10 16 0.00 0.00
9:53 am 09:53 Cloudy 48 8.9 41 5 77 77 NW 8 13 30.02 1017 10 16 0.00 0.00
10:53 am 10:53 Cloudy 50 10 40 4.4 68 68 NNW 6 9 30.05 1018 10 16 0.00 0.00
11:53 am 11:53 Cloudy 51 10.6 40 4.4 66 66 NW 10 17 30.06 1018 10 16 0.00 0.00
12:53 pm 12:53 Mostly Cloudy 54 12.2 42 5.6 64 64 NNW 12 19 30.06 1018 10 16 0.00 0.00
1:06 pm 13:06 Mostly Cloudy 56 13.3 42 5.6 60 60 NNW 13 20 30.06 1018 10 16 0.00 0.00
1:53 pm 13:53 Mostly Cloudy 57 13.9 41 5 55 55 N 12 19 30.05 1018 10 16 0.00 0.00
2:53 pm 14:53 Cloudy 56 13.3 41 5 57 57 NNW 8 13 30.05 1018 10 16 0.00 0.00
3:53 pm 15:53 Cloudy 59 15 42 5.6 54 54 VRB 6 9 30.05 1018 10 16 0.00 0.00
4:53 pm 16:53 Cloudy 59 15 42 5.6 54 54 VRB 3 6 30.06 1018 10 16 0.00 0.00
5:53 pm 17:53 Cloudy 59 15 42 5.6 54 54 N 3 6 30.07 1018 10 16 0.00 0.00
6:53 pm 18:53 Cloudy 57 13.9 43 6.1 60 60 NNW 8 13 30.10 1019 10 16 0.00 0.00
7:53 pm 19:53 Cloudy 56 13.3 43 6.1 62 62 NNE 6 9 30.14 1021 10 16 0.00 0.00
8:53 pm 20:53 Cloudy with Light Rain 52 11.1 47 8.3 83 83 N 7 11 30.16 1022 10 16 0.00 0.00
9:53 pm 21:53 Cloudy 53 11.7 48 8.9 83 83 Calm 30.19 1023 10 16 0.00 0.00
10:53 pm 22:53 Cloudy 55 12.8 41 5 59 59 E 10 17 30.22 1023 10 16 0.00 0.00
11:53 pm 23:53 Cloudy 54 12.2 36 2.2 51 51 E 12 19 30.24 1024 10 16 0.00 0.00

Powered by AerisWeather